Regional Weather Roundup
Issued by NWS

Home | Current Version | Previous Version | Text Only | Print | Product List | Glossary Off
Versions: 1 2 3 4 5 6 7 8 9 10 11 12 13 14 15 16 17 18 19 20 21 22 23 24 25 26 27 28 29 30 31 32 33 34 35 36 37 38 39 40 41 42 43 44 45 46 47 48 49 50

000
ASUS45 KBOI 292310
RWRID

IDAHO REGIONAL WEATHER ROUNDUP
NATIONAL WEATHER SERVICE BOISE ID
500 PM MDT SUN MAY 29 2016

NOTE: "FAIR" INDICATES FEW OR NO CLOUDS BELOW 12000 FEET
WITH NO SIGNIFICANT WEATHER AND/OR OBSTRUCTIONS TO VISIBILITY

IDZ012-014-300000-
SOUTHWEST IDAHO


CITY           SKY/WX    TMP DP  RH WIND       PRES   REMARKS
BOISE          CLOUDY    78  30  17 N12       29.94F
CALDWELL       CLOUDY    80  38  22 N6        29.93F
MOUNTAIN HOME  PTSUNNY   85  45  24 N8        29.91F
$$

IDZ016-017-300000-
SOUTHCENTRAL IDAHO


CITY           SKY/WX    TMP DP  RH WIND       PRES   REMARKS
BURLEY         PTSUNNY   70  42  36 W10G21    29.99F
JEROME         PTSUNNY   76  38  25 S12       29.98F
TWIN FALLS     PTSUNNY   71  44  37 E6        29.99F
$$

IDZ019>023-300000-
SOUTHEAST IDAHO


CITY           SKY/WX    TMP DP  RH WIND       PRES   REMARKS
IDAHO FALLS    CLOUDY    74  36  25 S13       30.01F
POCATELLO      CLOUDY    73  41  31 S8        30.01F
REXBURG        SUNNY     72  34  24 SW14G23   30.01F
$$

IDZ006-010-011-018-031-032-300000-
CENTRAL IDAHO MOUNTAINS


CITY           SKY/WX    TMP DP  RH WIND       PRES   REMARKS
MCCALL         PTSUNNY   67  28  23 S13       30.03F
HAILEY         MOSUNNY   70  36  28 S7G17     30.04F
STANLEY          N/A     63  26  24 VRB7      30.10F
SALMON         MOSUNNY   72  32  23 N3        29.92F
CHALLIS        CLOUDY    72  22  15 SW8G24    29.98F
$$

IDZ002-004-006-007-026-300000-
NORTHERN IDAHO


CITY           SKY/WX    TMP DP  RH WIND       PRES   REMARKS
LEWISTON       MOSUNNY   75  43  31 NW9       29.94F
LOWELL           N/A     76  44  32 VRB6      29.90F
COEUR D`ALENE  MOSUNNY   72  39  30 S16G23    29.92F
MULLAN PASS    MOSUNNY   52  34  50 VRB7G22   30.04F
$$



USA.gov is the U.S. government's official web portal to all federal, state and local government web resources and services.